Regional Weather Roundup
Issued by NWS

Home | Current Version | Previous Version | Graphics & Text | Print | Product List | Glossary On
Versions: 1 2 3 4 5 6 7 8 9 10 11 12 13 14 15 16 17 18 19 20 21 22 23 24 25 26 27 28 29 30 31 32 33 34 35 36 37 38 39 40 41 42 43 44 45 46 47 48 49 50
000
ASUS43 KIND 261059
RWRIN

WEATHER ROUNDUP FOR INDIANA
NATIONAL WEATHER SERVICE INDIANAPOLIS IN
600 AM EST MON JAN 26 2015

NOTE: "FAIR" INDICATES FEW OR NO CLOUDS BELOW 12,000 FEET WITH NO
SIGNIFICANT WEATHER AND/OR OBSTRUCTIONS TO VISIBILITY.

* - STATION DOES NOT REPORT WEATHER SUCH AS PRECIPITATION OR FOG.

+ - STATION NOT QUALITY CONTROLLED BY THE NATIONAL WEATHER SERVICE.
    USE DATA WITH CAUTION...ESPECIALLY DEWPOINT AND RELATIVE
    HUMIDITY OBSERVATIONS.

INZ001>003-010>013-019-020-261200-
NORTHWEST INDIANA

CITY           SKY/WX    TMP DP  RH WIND       PRES   REMARKS
GARY /AIRPORT/ CLEAR     19   9  63 MISG      29.98S
VALPARAISO     NOT AVBL

$$

LMZ046-743>745-261200-
SOUTHERN LAKE MICHIGAN

STATION/POSITION TIME  TEMP WIND        PRES
                       AIR  DIR/SP/G
                 (UTC) (F)  (DEG/KT/KT) (MB)
MICHIGAN CITY    1000   17   60/  5/  8   N/A

$$

INZ004-005-014>016-021>024-261200-
NORTH CENTRAL INDIANA

CITY           SKY/WX    TMP DP  RH WIND       PRES   REMARKS
GOSHEN         CLEAR     10   5  80 NW5       29.93R WCI   2
SOUTH BEND     PTCLDY     9   5  84 NW6       29.96R WCI  -1

$$

INZ006>009-017-018-025>027-261200-
NORTHEAST INDIANA

CITY           SKY/WX    TMP DP  RH WIND       PRES   REMARKS
ANGOLA *+      CLEAR      9   7  92 CALM      29.88F
FORT WAYNE     PTCLDY     9   4  80 N7        29.91S WCI  -2

$$

INZ028-029-035-036-043>045-051>053-261200-
WEST CENTRAL INDIANA

CITY           SKY/WX    TMP DP  RH WIND       PRES   REMARKS
GREENCASTLE +  CLOUDY    25  16  68 N6        29.92S WCI  18
LAFAYETTE      MOCLDY    19  14  81 N6        29.95R WCI  11
TERRE HAUTE    CLOUDY    27  20  75 N9        29.95R WCI  18

$$

INZ030>032-037>040-046>048-054>057-064-065-261200-
CENTRAL INDIANA

CITY           SKY/WX    TMP DP  RH WIND       PRES   REMARKS
INDIANAPOLIS   CLOUDY    20  14  77 N8        29.90F WCI  10
-EAGLE CREEK   MOCLDY    21  13  71 N10       29.90F WCI  10
KOKOMO *+      FAIR      14   7  73 N3        29.92S
MT COMFORT *+  CLOUDY    21  10  63 N10       29.90S WCI  10
SHELBYVILLE    CLOUDY    22  16  78 N15       29.89R WCI   9

$$

INZ033-034-041-042-049-050-058-059-261200-
EAST CENTRAL INDIANA

CITY           SKY/WX    TMP DP  RH WIND       PRES   REMARKS
MUNCIE         PTCLDY    16  10  77 N7        29.88S WCI   6

$$

INZ060-061-067>069-081>083-085>088-261200-
SOUTHWEST INDIANA

CITY           SKY/WX    TMP DP  RH WIND       PRES   REMARKS
EVANSVILLE     CLOUDY    31  24  75 N10G17    29.96R WCI  22
HUNTINGBURG *+ CLOUDY    27  19  74 N12G18    29.93R WCI  16

$$

INZ062-063-066-070>080-084-089>092-261200-
SOUTH CENTRAL AND SOUTHEAST INDIANA

CITY           SKY/WX    TMP DP  RH WIND       PRES   REMARKS
BLOOMINGTON    CLOUDY    24  19  81 N7        29.90S WCI  16

$$




USA.gov is the U.S. government's official web portal to all federal, state and local government web resources and services.